Regional Weather Roundup
Issued by NWS Cleveland, OH

Home | Current Version | Previous Version | Graphics & Text | Print | Product List | Glossary On
Versions: 1 2 3 4 5 6 7 8 9 10 11 12 13 14 15 16 17 18 19 20 21 22 23 24 25 26 27 28 29 30 31 32 33 34 35 36 37 38 39 40 41 42 43 44 45 46 47 48 49 50
000
ASUS41 KCLE 242310
RWRCLE
OHIO REGIONAL WEATHER ROUNDUP
NATIONAL WEATHER SERVICE WILMINGTON, OH
700 PM EDT SUN SEP 24 2017

NOTE: "FAIR" INDICATES FEW OR NO CLOUDS BELOW 12,000 FEET WITH NO
SIGNIFICANT WEATHER AND/OR OBSTRUCTIONS TO VISIBILITY.

OHZ001>008-015>018-024>027-034-035-043-044-250000-
   NORTHWEST OHIO

CITY           SKY/WX    TMP DP  RH WIND       PRES   REMARKS
DEFIANCE       FAIR      86  62  44 CALM      30.06R
FINDLAY        FAIR      87  59  38 E5        30.06R
TOLEDO EXPRESS FAIR      82  66  58 NE7       30.07S
TOLEDO EXEC    FAIR      81  66  60 E6        30.08S
LIMA           FAIR      85  58  39 SE6       30.07S
$$

OHZ009>014-019>023-028>033-038-089-250000-
   NORTHEAST OHIO

CITY           SKY/WX    TMP DP  RH WIND       PRES   REMARKS
CLE-HOPKINS    FAIR      83  65  54 NE13      30.10S
CLE-LAKEFRONT  FAIR      75  68  78 NE12      30.07S
CUY CO. ARPT   PTCLDY    81  64  57 NE12      30.10S
LORAIN-ELYRIA  FAIR      79  61  53 NE6       30.09S
ASHTABULA      FAIR      79  67  66 NE3       30.12R
AKRON-CANTON   FAIR      85  61  44 NE5       30.10R
WOOSTER        FAIR      75  67  76 S3        30.10R
MANSFIELD      FAIR      83  62  49 E3        30.10S
YOUNGSTOWN     FAIR      84  64  50 NE5       30.10S
$$

OHZ042-051>053-060>062-070>072-077>081-250000-
  SOUTHWEST OHIO

CITY           SKY/WX    TMP DP  RH WIND       PRES   REMARKS
CINC-COVINGTON FAIR      79  55  43 SE6       30.05S
CINC-LUNKEN    FAIR      79  65  62 E3        30.04S
HAMILTON       FAIR      83  55  38 E5        30.05S
DAYTON         FAIR      82  55  39 SE7       30.07S
WRIGHT-PAT AFB FAIR      85  52  31 SE6       30.05S
DAYTON GENERAL FAIR      83  51  33 SE6       30.06S
WILMINGTON     FAIR      81  59  47 E5        30.07S
$$

OHZ036-037-039>041-045>050-054>059-063>069-073>076-082>088-250000-
  CENTRAL AND SOUTHEAST OHIO

CITY           SKY/WX    TMP DP  RH WIND       PRES   REMARKS
COLUMBUS       FAIR      86  61  42 E3        30.06S
OSU AIRPORT    FAIR      84  62  47 E5        30.07S
BOLTON FIELD   CLEAR     84  61  45 SE5       30.07S
RICKENBACK AFB FAIR      84  61  45 S3        30.06S
NEWARK         FAIR      84  63  49 CALM      30.07S
MARION         FAIR      85  57  38 SE8       30.08S
LANCASTER      FAIR      81  64  56 CALM      30.07S
ZANESVILLE     FAIR      86  60  41 NE3       30.07S
NEW PHILLY     FAIR      82  64  54 CALM      30.08S
$$



USA.gov is the U.S. government's official web portal to all federal, state and local government web resources and services.